Location: Ida
(33.5751°N, 96.4900°W)
Time: 10:50:01
(UTC+00:00)

ACS3 Solar Sail - Visible Passes

Search period start: 04 October 2024 00:00
Search period end: 14 October 2024 00:00
Orbit: 963 x 1036 km, 97.4° (Epoch: 04 October)

Date Brightness Start Highest point End Pass type
(mag) Time Alt. Az. Time Alt. Az. Time Alt. Az.
04 Oct 2.2 01:57:53 42° ENE 01:57:53 42° ENE 02:03:37 10° N visible
04 Oct 3.8 03:43:04 24° WNW 03:43:04 24° WNW 03:46:51 10° NW visible
05 Oct 3.6 00:45:44 10° ENE 00:46:38 10° ENE 00:47:33 10° NE visible
05 Oct 1.9 02:30:24 67° NNE 02:30:24 67° NNE 02:35:56 10° N visible
05 Oct 4.5 04:15:34 12° WNW 04:15:34 12° WNW 04:16:36 10° WNW visible
06 Oct 3.0 01:17:44 21° ENE 01:18:09 21° ENE 01:22:39 10° NNE visible
06 Oct 2.7 03:02:55 47° WNW 03:02:55 47° WNW 03:07:49 10° NNW visible
07 Oct 2.4 01:50:15 38° ENE 01:50:15 38° ENE 01:55:38 10° N visible
07 Oct 3.7 03:35:26 25° WNW 03:35:26 25° WNW 03:39:08 10° NW visible
08 Oct 2.0 02:22:46 60° NNE 02:22:46 60° NNE 02:28:01 10° N visible
08 Oct 4.5 04:07:57 13° WNW 04:07:57 13° WNW 04:09:19 10° WNW visible
09 Oct 3.2 01:10:06 19° ENE 01:10:20 19° ENE 01:14:30 10° NNE visible
09 Oct 2.7 02:55:17 47° NW 02:55:17 47° NW 02:59:58 10° NNW visible
10 Oct 2.5 01:42:37 34° ENE 01:42:37 34° ENE 01:47:37 10° N visible
10 Oct 3.6 03:27:48 27° WNW 03:27:48 27° WNW 03:31:24 10° NNW visible
11 Oct 2.2 02:15:07 53° NNE 02:15:07 53° NNE 02:20:04 10° N visible
11 Oct 4.4 04:00:18 14° WNW 04:00:18 14° WNW 04:01:51 10° NW visible
12 Oct 3.3 01:02:27 17° ENE 01:02:31 17° ENE 01:06:17 10° NNE visible
12 Oct 2.6 02:47:38 47° NW 02:47:38 47° NW 02:52:05 10° NNW visible
13 Oct 2.7 01:34:57 30° NE 01:34:57 30° NE 01:39:34 10° N visible
13 Oct 3.6 03:20:08 28° WNW 03:20:08 28° WNW 03:23:37 10° NNW visible
